Theta_e
316 314 313 314 315 316 316 316 313 314 314 312 312 312 312 314 315 315 316 316 315 323 331 335 344 338 334 336 336 339 343 346 346 343 341 345 345 345 348 348 349 346 345 344 343 342 338 334 329 329 327 326 325 327 333 339 340 341 342 342 341 340 339 338 338 338 339 339 340 341 340 340 338 339 339 339 339 339 338 339 338 336 337 338 338 339 339 340 337 335 336 335 335 335 334 334 335
314 313 315 316 316 316 316 314 313 314 313 309 311 313 312 315 316 315 315 316 315 319 322 321 337 345 343 344 342 344 347 344 344 345 344 344 345 347 348 348 348 346 345 344 343 342 341 337 330 329 327 326 327 327 328 332 336 338 339 339 339 338 337 337 337 337 336 337 338 339 337 337 337 337 335 334 336 337 338 341 340 338 337 338 340 340 340 340 337 336 338 337 337 336 335 335 336
314 315 317 318 316 316 316 313 313 313 310 307 309 313 312 314 316 315 315 316 315 316 317 318 334 346 345 345 343 345 348 344 343 344 342 344 346 347 348 348 347 346 345 343 342 342 342 338 331 329 327 326 331 333 331 329 330 333 335 335 336 337 337 338 337 337 336 337 338 337 336 338 339 338 335 334 337 339 339 340 341 340 338 338 340 340 341 340 337 337 338 338 338 338 337 337 336
314 317 317 318 316 316 317 314 314 312 308 307 308 311 311 313 314 314 315 314 315 317 317 323 339 346 346 348 346 347 348 345 344 343 343 344 345 347 348 347 346 345 344 342 342 341 342 338 331 329 326 327 333 337 336 333 331 331 333 334 336 337 337 338 338 337 338 339 340 339 340 341 340 339 338 338 339 338 336 338 340 339 338 339 340 341 340 339 338 338 339 338 338 338 338 338 337
315 317 318 319 318 317 317 314 314 311 308 310 309 310 312 312 314 313 315 316 316 317 317 326 344 346 346 349 347 348 347 345 344 344 344 344 345 347 347 346 345 345 343 342 342 341 342 338 331 328 326 328 332 335 337 336 332 332 333 333 335 335 335 335 335 336 337 339 340 341 342 342 341 339 339 339 338 337 334 335 338 339 338 339 340 340 340 339 339 339 339 338 337 337 337 336 335
316 317 317 318 316 316 315 313 313 311 310 312 310 311 313 313 314 315 315 317 315 319 325 333 344 347 348 347 345 345 345 346 345 344 345 345 346 346 347 346 345 344 343 342 341 342 341 336 330 329 327 327 329 332 335 336 335 336 335 334 334 334 334 334 334 334 334 337 339 340 341 341 340 338 337 336 336 337 336 334 335 339 338 338 339 340 339 340 339 339 339 338 336 335 334 333 333
316 318 316 316 314 314 316 314 313 314 313 312 312 313 314 314 315 316 315 316 314 323 337 344 346 347 350 347 345 345 343 346 344 344 345 345 346 346 346 345 344 345 343 341 341 342 340 334 330 329 327 328 328 331 332 333 336 336 335 335 336 335 334 336 336 337 336 337 338 339 340 339 338 336 335 336 336 338 339 335 332 336 339 338 338 339 338 339 339 338 337 336 334 333 333 333 333
315 316 313 315 315 314 316 315 314 315 314 313 314 315 316 316 316 315 315 315 313 320 327 334 344 347 350 348 348 346 344 346 345 345 345 345 346 346 345 345 344 344 343 342 341 341 337 331 331 329 327 328 328 330 330 332 335 335 334 336 336 335 335 337 338 339 339 338 338 339 339 337 335 334 335 337 338 338 338 335 331 333 337 338 338 338 338 338 337 335 334 332 332 332 333 333 333
313 313 312 314 315 313 314 313 313 313 313 313 313 314 315 314 314 314 314 314 314 315 314 321 339 347 349 349 348 345 344 346 346 346 345 345 346 345 345 344 344 343 342 341 341 341 337 332 331 330 328 329 330 331 331 333 334 335 335 335 335 334 336 338 338 339 339 338 338 338 338 336 335 334 336 338 338 337 337 335 333 331 334 337 338 338 338 337 334 331 330 331 332 332 333 333 333
312 312 313 314 313 312 312 310 312 311 312 312 312 313 313 313 313 313 313 314 315 313 318 330 341 347 349 350 348 343 344 346 346 346 345 345 345 345 345 344 345 343 341 342 342 340 338 334 331 330 329 329 332 333 333 332 332 334 335 334 334 333 334 336 338 338 338 338 338 337 337 335 335 335 336 337 337 338 336 335 335 332 331 334 336 336 335 333 332 332 330 331 332 333 333 333 333
313 311 311 313 312 311 310 309 311 311 311 311 312 313 313 313 311 315 316 317 316 313 328 342 344 348 350 350 347 343 344 346 346 346 345 345 345 345 344 344 344 343 342 342 342 340 339 339 335 331 329 330 333 333 332 331 330 331 331 332 333 333 333 334 336 337 337 337 337 337 336 336 335 334 335 336 337 337 335 334 335 334 331 331 332 332 332 332 333 333 332 331 332 333 334 333 333
314 312 312 314 312 310 310 311 311 312 313 312 314 313 312 311 314 325 326 322 318 314 330 345 344 347 350 350 346 343 345 346 346 345 345 345 345 345 344 344 344 343 342 342 341 340 339 340 339 335 331 331 334 334 332 330 328 328 327 329 332 333 332 332 334 335 336 336 336 336 336 335 335 334 335 335 335 333 332 334 334 333 331 330 331 332 332 332 332 331 330 331 332 333 334 334 333
313 312 312 312 311 312 311 311 312 313 314 312 313 312 311 310 319 333 332 331 328 322 332 344 345 347 350 350 345 342 344 345 345 345 345 345 345 345 344 344 344 342 342 342 341 340 339 340 339 338 336 334 334 335 332 329 327 326 325 327 330 331 331 332 333 334 335 335 336 336 335 335 335 334 335 335 334 331 331 333 333 333 332 331 332 332 332 330 329 329 329 330 332 333 333 333 333
312 311 313 312 311 312 311 311 311 312 312 312 312 310 310 310 319 333 337 340 342 337 340 345 344 348 350 348 346 343 343 344 345 345 345 345 345 345 344 344 343 343 342 342 342 341 340 340 338 338 338 337 336 335 333 330 326 325 327 330 331 332 333 334 334 333 333 334 336 336 335 334 334 334 334 335 334 332 332 333 334 334 333 332 332 332 331 329 329 328 328 329 331 333 333 333 333
311 310 313 314 311 311 311 311 311 311 311 312 311 308 311 311 313 331 343 344 347 343 344 346 343 347 349 349 349 344 342 344 344 345 345 345 345 345 344 344 343 343 342 342 342 341 341 339 337 339 339 339 338 336 335 332 327 329 332 334 334 334 335 335 334 333 332 333 334 335 334 334 333 333 333 334 334 334 334 335 336 335 333 332 332 332 331 330 329 328 328 329 331 333 333 333 333
310 310 313 313 311 311 310 311 311 311 312 311 311 309 311 312 310 328 344 343 346 345 344 346 343 344 345 345 348 344 342 344 343 344 344 344 344 344 344 343 343 343 342 342 342 341 341 339 337 339 340 340 339 337 337 334 331 333 336 337 336 336 336 335 335 334 333 333 334 335 335 334 334 334 334 334 335 335 335 337 336 334 333 332 332 331 331 330 329 328 328 329 330 332 333 333 333
309 312 314 313 311 310 310 311 311 310 311 311 311 310 310 313 310 323 341 343 345 345 344 345 344 345 344 344 345 343 343 343 343 344 344 344 344 343 343 343 343 343 342 342 342 341 340 338 338 340 340 340 339 338 337 334 334 336 337 337 337 337 337 337 336 335 335 336 337 337 336 335 335 336 336 336 336 336 336 336 334 331 329 328 329 329 330 329 328 328 328 329 330 332 333 333 333
311 314 313 312 311 311 310 311 311 309 312 311 311 310 309 313 310 315 333 344 346 344 345 345 345 345 344 345 344 343 343 343 344 343 343 343 342 343 343 343 343 343 343 342 341 340 340 338 338 339 340 340 339 338 337 334 335 337 338 338 338 338 337 338 337 336 337 338 338 338 337 336 336 337 337 336 335 334 333 332 328 325 322 322 324 326 328 328 328 328 327 328 330 332 333 334 334
312 313 312 311 311 310 310 311 310 309 311 311 312 310 309 312 310 314 326 339 345 345 346 346 346 345 343 343 343 343 343 343 343 342 342 341 341 342 342 343 342 342 343 342 341 340 339 338 338 340 340 340 339 338 336 334 336 339 340 338 337 338 338 338 339 339 339 339 339 337 337 336 336 336 334 333 332 331 330 327 323 321 320 321 321 322 325 328 328 327 328 328 330 332 332 334 335
312 311 313 312 310 309 309 309 309 310 310 310 312 310 310 311 309 316 326 333 344 347 347 347 347 346 343 342 342 343 342 342 342 341 341 340 341 341 341 342 341 341 342 342 341 340 339 338 339 340 340 340 340 337 335 335 336 339 339 337 336 337 337 338 338 339 339 339 338 337 337 336 335 333 331 330 331 331 330 325 321 321 321 321 321 321 323 327 328 328 328 328 330 331 332 333 335
311 311 313 311 309 311 311 309 310 310 309 310 311 310 312 312 310 318 325 326 334 343 345 346 347 347 343 341 342 343 343 342 341 340 340 339 340 340 340 341 341 341 341 341 341 340 340 340 340 340 340 340 340 337 335 336 337 337 337 336 336 336 337 337 338 339 339 339 338 337 336 334 333 332 331 331 331 331 329 325 322 321 321 321 322 322 324 327 328 328 328 328 330 331 332 332 333
311 312 312 310 310 312 312 311 312 310 309 310 311 312 312 311 311 315 318 316 320 333 342 344 345 345 343 342 342 342 342 341 340 339 339 339 340 340 340 340 340 341 341 341 341 341 340 340 341 340 339 339 339 336 335 337 337 337 336 336 337 337 337 337 338 338 337 337 337 336 335 333 333 332 330 329 328 328 327 323 322 322 322 323 323 324 325 327 328 328 328 328 330 331 331 332 332
312 313 312 312 312 312 312 312 313 312 311 311 312 311 309 310 311 311 313 315 321 333 339 341 343 345 343 342 342 341 340 339 339 338 338 338 339 338 339 339 340 340 340 341 340 341 340 340 340 339 339 339 338 335 335 338 338 337 337 336 337 337 337 337 336 335 335 335 336 335 334 333 332 330 329 328 328 328 326 324 324 325 325 326 326 326 327 328 328 328 329 329 330 330 331 332 332
312 313 313 313 312 312 313 313 313 312 311 311 311 309 309 310 310 312 313 316 329 339 341 340 343 345 344 342 340 340 339 339 338 337 337 337 336 336 337 337 338 339 339 340 339 340 340 340 340 339 339 338 338 335 335 338 338 337 337 336 336 336 336 336 334 333 333 334 334 332 331 330 329 327 328 329 327 326 327 327 328 328 328 328 328 328 328 328 329 329 329 329 330 330 331 332 332
312 313 313 313 313 313 313 312 312 312 310 309 309 308 310 310 309 311 309 314 333 343 342 342 344 343 343 341 340 341 339 338 338 337 337 336 335 336 337 335 336 338 339 339 339 339 339 339 339 338 338 338 337 335 335 337 337 337 337 336 335 335 335 334 332 331 332 333 331 329 328 327 326 325 326 325 324 325 327 329 330 331 330 330 330 329 329 329 329 329 329 329 330 329 330 332 331
313 314 313 314 314 313 312 311 311 310 308 308 309 310 310 308 308 310 315 325 337 344 344 343 343 342 343 341 341 341 338 337 338 337 337 336 336 336 336 335 335 337 338 338 338 338 338 338 339 338 338 338 336 335 336 337 336 337 336 334 334 334 334 332 331 331 332 332 330 329 329 328 325 324 323 322 324 326 328 329 330 330 329 329 329 329 329 329 329 329 328 329 329 329 330 331 331
312 313 313 313 312 311 310 310 310 308 307 308 308 311 310 308 309 309 326 339 342 344 345 343 343 343 343 341 341 341 337 337 337 337 337 336 337 336 336 335 336 337 338 337 337 337 337 338 339 338 338 338 335 335 336 336 335 336 335 333 334 333 332 332 332 332 332 331 329 331 332 330 327 325 324 323 325 327 328 329 330 330 329 329 328 328 328 329 329 328 328 328 330 330 329 330 331
311 311 311 310 309 308 308 309 309 308 309 309 307 310 308 307 310 307 325 341 344 344 345 343 343 344 342 342 342 340 336 336 337 337 337 337 337 336 335 334 334 333 335 337 336 335 336 337 338 338 338 338 335 334 336 335 335 335 334 332 332 331 331 332 332 332 331 330 329 332 333 332 330 328 327 326 327 328 328 329 329 330 330 328 328 328 328 328 329 328 327 328 329 330 330 331 332
310 309 310 310 309 310 309 308 308 308 310 310 307 310 310 308 313 307 321 340 345 343 345 343 344 344 342 343 342 339 336 336 337 337 338 338 338 336 333 331 333 331 329 334 336 335 337 338 338 338 338 337 334 334 335 335 335 334 333 331 330 329 332 333 332 333 330 330 331 331 332 332 331 331 330 329 329 329 329 329 329 330 330 328 328 328 327 327 328 327 327 328 329 330 331 332 332
310 309 309 310 311 311 310 307 307 308 309 310 309 311 311 311 313 307 321 341 345 342 345 343 344 344 343 344 342 338 335 335 337 338 339 338 338 335 332 331 334 334 334 335 336 336 337 338 339 338 338 337 335 334 334 334 334 333 332 331 329 330 332 332 332 332 329 330 332 332 332 332 332 332 331 331 331 331 330 330 330 331 330 328 327 327 327 327 327 327 328 328 329 330 331 332 332
309 309 309 309 311 311 310 308 308 310 309 309 309 310 310 312 312 308 323 342 344 342 344 343 344 344 343 345 341 337 335 336 337 338 338 337 337 335 334 333 333 334 335 336 337 336 337 338 338 337 337 336 334 334 334 334 333 332 331 330 329 329 330 330 331 331 330 330 332 332 333 332 332 332 332 332 331 332 331 331 331 331 329 328 327 327 327 326 327 329 329 329 330 330 331 331 331
308 310 311 309 310 310 310 309 308 310 309 308 309 309 310 313 310 309 328 343 344 343 344 342 344 344 344 345 340 338 336 336 337 337 337 336 336 335 334 335 334 335 335 336 336 336 337 337 337 336 336 334 332 333 334 334 332 330 329 329 328 328 329 329 330 329 330 331 332 332 333 332 333 332 332 332 332 332 332 332 331 331 329 328 327 326 327 326 327 329 330 330 330 330 330 330 330
308 310 312 310 310 310 310 309 307 308 309 309 309 310 310 312 310 311 330 343 343 343 344 342 344 344 344 345 341 338 337 337 336 336 337 336 335 334 333 335 335 335 335 336 336 337 337 335 335 335 334 333 331 332 333 332 332 330 329 329 328 329 329 330 330 329 329 331 332 333 333 332 332 332 332 332 333 333 332 332 331 331 330 327 327 326 326 327 327 329 330 330 330 330 330 330 330
311 310 311 311 310 309 309 310 308 308 309 310 309 310 311 312 310 311 326 341 343 343 343 343 344 344 344 344 342 339 338 337 336 336 337 336 335 333 333 335 335 335 335 336 336 336 336 334 334 334 333 333 332 332 332 331 331 331 330 330 330 330 331 331 331 330 331 332 332 332 332 332 332 332 332 332 333 333 333 332 331 332 330 328 327 326 326 327 327 329 329 329 330 330 329 329 330
313 312 311 311 310 309 309 309 309 308 310 311 310 311 311 312 312 309 315 332 342 343 342 343 343 343 344 344 343 340 338 338 337 338 337 336 336 334 334 335 335 335 334 335 336 336 336 334 334 334 333 332 331 331 331 331 331 332 331 331 331 332 333 332 332 331 331 332 332 332 332 332 332 332 332 332 332 333 333 332 332 332 331 329 327 326 326 327 328 329 329 329 329 329 329 329 329
310 310 310 310 310 310 309 308 309 309 310 311 311 311 311 311 312 311 309 318 336 343 342 343 343 343 343 344 344 341 339 340 339 339 338 336 337 336 335 336 336 335 334 334 335 335 335 334 333 334 332 329 328 330 331 332 333 333 333 333 333 333 334 333 334 333 332 332 333 333 333 333 332 332 332 332 332 333 332 332 332 332 332 330 327 326 326 327 328 329 329 329 329 329 329 329 329
309 309 310 310 311 311 309 309 309 308 309 311 312 311 311 312 312 314 311 311 325 339 342 342 342 343 343 343 344 342 340 340 340 340 338 337 337 336 335 335 335 335 333 333 334 335 335 334 333 332 330 325 324 328 331 332 334 333 333 334 334 334 335 335 335 334 332 333 334 334 334 333 333 332 332 333 333 333 332 331 332 332 332 330 327 327 328 327 327 329 329 329 329 329 329 329 329
309 310 311 311 311 311 309 309 309 308 309 311 312 311 311 313 313 314 314 310 315 330 340 342 342 342 342 343 343 343 341 339 339 339 339 338 337 336 335 335 335 334 333 333 333 335 335 335 334 333 332 327 322 325 329 332 334 334 334 335 335 334 335 335 335 333 333 334 334 334 334 333 333 332 332 333 333 333 332 332 332 332 332 330 327 327 328 328 327 329 329 329 329 329 329 329 329
310 310 311 312 311 310 310 310 309 308 309 311 312 311 312 313 314 313 314 313 313 322 335 341 341 342 342 342 342 342 341 340 339 339 339 339 337 336 336 335 335 334 334 333 333 334 335 335 335 334 334 331 326 325 328 332 334 334 335 335 335 335 335 335 334 333 334 334 333 333 333 333 332 332 332 332 332 332 332 332 332 332 332 331 327 327 328 328 328 329 329 329 329 329 329 329 329
311 311 311 312 311 310 311 311 311 310 310 311 311 311 313 313 314 315 313 312 312 314 322 334 340 342 342 341 341 341 341 341 340 339 339 340 338 337 336 335 335 334 334 334 334 334 334 334 335 334 333 333 331 328 329 333 335 335 335 336 335 335 335 335 334 335 335 334 333 333 333 333 332 332 333 332 332 332 332 332 332 332 332 331 329 327 329 329 329 330 330 329 329 329 329 328 328
313 313 311 311 310 309 311 311 311 311 312 312 312 311 314 315 315 315 313 313 314 311 311 321 334 340 341 341 342 341 340 340 340 340 339 339 339 337 335 335 334 334 334 334 334 334 334 334 334 334 333 332 332 330 331 333 335 335 335 335 335 335 335 334 334 335 334 333 333 333 333 332 332 332 332 332 332 332 331 332 332 332 331 332 330 328 329 329 329 329 329 329 330 330 329 329 328
313 313 312 311 311 310 310 310 310 311 312 313 312 313 314 315 316 315 314 317 320 315 311 314 324 335 341 341 341 340 340 340 339 339 338 338 340 338 335 334 334 334 334 334 334 334 334 334 335 334 333 332 331 331 333 334 335 335 334 334 334 334 334 334 334 334 334 334 333 333 332 332 332 333 332 332 331 331 331 331 332 331 331 331 331 330 329 329 329 328 328 328 330 330 330 330 329
311 313 314 310 310 310 310 310 310 311 312 313 313 313 314 315 315 315 317 322 324 319 316 317 321 331 339 341 340 340 340 339 339 338 337 338 340 337 335 334 334 334 334 334 334 334 334 334 335 334 332 331 331 332 334 334 335 335 334 334 334 335 334 334 334 334 333 333 332 332 332 332 332 332 332 331 331 331 331 332 331 331 331 331 331 331 329 328 328 328 328 327 329 329 329 331 330
312 314 314 310 309 310 310 310 311 311 312 314 313 312 314 315 314 317 319 324 326 322 321 322 325 331 337 339 339 339 339 339 339 339 338 338 339 337 335 334 334 334 334 334 334 334 333 333 334 334 332 331 332 333 334 333 334 335 335 335 335 335 334 334 333 333 332 332 332 332 332 332 332 332 331 331 330 331 331 331 331 331 331 331 331 331 330 329 328 328 328 328 328 328 329 331 331
313 312 311 309 309 310 310 310 311 312 312 313 313 312 314 315 314 317 322 323 324 326 327 326 327 330 334 337 337 338 339 338 338 338 338 338 338 336 335 334 334 333 334 334 334 333 332 333 335 334 333 332 333 333 333 333 334 335 335 335 335 334 333 333 333 332 331 331 332 332 332 332 332 331 331 331 331 331 331 331 331 331 331 331 331 331 331 330 329 328 328 327 327 328 329 330 331
311 310 308 308 309 309 310 310 311 313 313 314 315 314 313 313 314 318 323 325 327 328 328 327 327 328 332 335 336 337 338 337 337 337 337 338 337 335 334 333 333 333 333 333 334 334 332 333 334 334 333 332 332 333 333 334 335 335 335 335 335 334 332 332 332 332 332 332 331 332 332 332 331 331 331 331 330 330 330 330 330 330 330 330 331 330 330 331 330 328 328 328 327 328 328 328 330
308 309 309 309 310 310 311 311 311 313 314 314 315 315 313 313 313 317 323 327 329 329 329 330 329 329 331 333 334 335 336 335 335 335 335 336 335 333 333 333 333 333 333 332 333 334 333 333 334 333 333 332 332 333 334 335 335 336 335 335 335 333 331 331 332 332 332 331 331 331 332 331 331 331 331 330 330 330 330 330 330 330 330 330 330 330 330 330 330 329 329 329 328 327 327 327 328
308 309 310 311 312 311 311 312 312 314 314 314 312 312 313 313 314 319 324 326 328 330 331 331 331 330 331 332 333 334 334 334 334 333 333 334 333 333 333 333 332 333 333 332 332 333 334 334 334 333 333 333 332 332 333 334 335 335 335 335 335 332 330 330 331 331 330 330 331 332 331 331 330 330 330 329 329 329 329 329 329 329 328 328 329 329 330 330 330 329 329 329 328 327 328 328 328
308 309 310 312 312 313 313 313 313 314 315 313 310 311 313 313 314 321 326 328 330 330 330 330 330 329 331 332 333 334 334 334 333 333 333 332 331 332 332 332 332 332 333 333 332 333 333 333 333 334 334 333 332 332 333 334 335 335 335 336 334 330 330 330 328 328 328 328 329 330 330 329 328 328 327 327 326 326 326 326 326 326 327 327 328 328 329 329 329 329 329 329 328 328 327 328 328
308 310 311 312 313 312 313 313 312 314 315 312 309 311 313 312 318 325 327 330 330 329 330 331 330 331 332 333 333 334 333 334 333 332 331 330 329 330 330 330 331 332 332 332 332 332 333 333 333 333 333 333 333 333 333 334 335 336 336 335 332 330 330 329 326 326 325 324 325 327 326 326 326 325 325 324 324 323 324 324 324 324 325 326 327 327 327 327 329 329 329 329 328 328 327 327 327
308 309 310 312 313 313 313 313 313 313 314 313 311 312 314 315 322 326 328 330 330 329 329 331 331 332 333 334 334 334 334 333 331 329 329 330 329 329 329 330 330 331 331 331 332 332 332 332 332 332 332 333 333 332 332 334 336 336 335 333 331 330 329 327 324 324 324 322 323 323 323 323 323 323 323 323 323 323 323 323 323 324 324 324 325 326 326 327 328 329 329 329 328 328 327 327 327
308 308 310 312 313 315 314 312 313 313 314 315 313 315 318 319 321 324 329 330 329 329 329 330 332 332 333 334 335 335 335 333 329 328 329 330 329 329 330 330 330 330 331 331 331 331 331 331 331 331 332 332 332 332 333 335 336 335 333 331 330 330 328 325 325 325 324 322 322 322 321 322 322 322 323 323 323 324 323 323 323 323 324 325 325 326 326 326 327 328 328 328 328 327 326 326 326
309 308 310 311 310 314 315 312 312 313 313 315 316 318 321 321 321 326 330 331 329 329 330 331 332 332 332 332 332 333 333 331 328 329 330 329 330 330 330 330 330 330 330 330 330 331 331 330 330 331 331 331 332 332 334 335 335 333 331 331 331 330 327 325 325 326 325 323 323 323 323 323 322 322 322 323 324 323 323 323 323 323 324 324 325 326 326 327 328 328 328 327 327 326 325 326 326
310 310 311 310 309 313 315 313 313 313 313 315 317 322 325 323 322 327 330 331 330 329 330 331 331 331 332 331 331 331 331 330 329 329 329 330 330 330 330 330 330 329 329 329 329 330 331 330 330 331 331 331 332 332 334 334 333 332 330 330 331 330 327 325 326 326 325 324 324 324 325 324 323 323 323 323 323 323 323 323 323 322 323 323 324 326 327 327 328 328 327 327 327 326 325 326 326
309 310 310 310 312 314 313 313 314 314 313 315 318 322 324 323 325 328 330 330 330 329 329 330 331 331 331 331 331 331 330 330 329 329 329 330 330 331 330 330 330 329 328 328 329 330 331 331 331 331 331 331 331 331 332 332 331 331 330 330 330 329 327 326 326 326 325 325 324 324 325 324 323 323 322 323 323 323 323 322 322 322 322 322 323 325 327 328 328 327 327 327 327 326 326 325 325
309 309 309 310 313 314 313 314 314 314 315 316 318 321 321 322 324 325 328 328 329 330 329 329 330 330 330 330 331 331 330 330 330 329 329 329 331 331 330 330 330 329 328 328 329 330 331 330 329 330 330 330 330 329 330 330 330 329 328 329 330 329 327 326 327 326 325 325 324 324 324 323 323 322 322 322 323 323 322 322 322 322 321 322 324 325 327 328 327 327 327 327 327 326 326 326 325
310 311 312 312 313 313 313 314 313 313 315 316 316 317 320 322 321 323 326 327 328 329 329 329 326 326 326 326 326 328 329 329 330 331 330 330 331 331 330 330 329 328 329 328 329 330 330 329 328 329 329 329 329 329 329 329 328 327 327 328 328 328 327 327 327 326 324 324 324 323 323 323 322 321 321 322 322 323 322 321 322 322 321 322 324 326 327 328 327 327 327 327 327 326 325 324 323
311 312 313 313 314 314 313 314 313 314 315 315 315 315 318 322 322 325 326 326 326 327 326 324 320 319 319 318 318 319 321 323 324 328 330 330 330 329 329 329 328 328 328 328 328 328 328 328 328 328 328 328 328 328 328 328 326 326 327 327 327 327 327 327 326 324 323 324 323 322 322 322 322 321 322 322 322 322 322 321 322 322 321 321 323 324 326 326 326 326 327 327 327 324 320 319 320
Wind_Speed
8 7 6 6 5 5 3 0 1 1 0 1 2 2 2 4 2 2 3 2 2 1 0 3 3 3 3 3 3 1 2 1 1 1 1 2 8 18 19 22 28 26 26 26 25 25 25 28 27 27 27 27 27 28 28 28 28 28 27 26 27 26 25 24 23 22 23 25 25 25 24 24 23 24 24 23 23 22 22 22 23 23 23 22 21 20 20 21 21 21 20 19 19 18 18 18 18
8 8 6 6 4 3 2 1 1 1 1 2 2 3 0 1 1 3 4 4 2 2 5 7 4 4 2 2 2 1 1 3 2 1 2 8 14 16 19 25 26 25 27 26 25 25 25 27 28 27 26 26 26 27 28 27 28 28 27 27 27 26 25 24 22 21 22 24 24 24 24 25 25 24 23 23 24 23 22 21 22 23 23 22 21 20 19 19 19 19 18 18 18 17 17 17 17
9 8 6 6 3 1 2 1 1 1 1 3 2 3 0 1 4 4 4 5 5 7 9 8 5 3 3 4 1 2 1 3 3 3 5 13 15 15 21 24 25 25 26 25 25 25 25 27 28 27 26 26 26 26 26 26 27 27 26 26 25 25 24 24 24 23 23 22 22 24 25 25 24 22 22 25 25 23 22 21 21 21 22 21 20 20 19 18 18 18 17 17 16 16 16 15 15
9 7 5 5 2 0 2 0 1 1 2 2 2 2 3 4 5 4 3 5 7 10 8 5 2 1 2 2 0 1 1 2 3 4 6 13 14 17 22 24 25 24 25 25 23 24 25 28 29 27 26 26 26 26 26 25 26 26 26 25 24 24 24 24 24 24 23 22 21 23 24 23 23 22 22 24 24 22 22 22 21 21 21 20 19 18 18 17 17 16 16 15 15 15 14 14 14
8 6 3 3 1 1 2 1 2 2 3 2 1 1 3 4 2 3 7 8 9 12 8 4 1 2 1 2 2 1 1 2 3 5 8 12 15 20 24 24 25 24 24 24 22 23 25 28 29 28 26 25 26 26 25 25 25 26 25 25 24 24 24 24 24 23 22 20 20 21 22 22 23 22 21 21 21 20 20 20 21 21 21 20 18 17 17 17 17 16 15 15 14 13 13 14 13
7 6 3 2 1 0 2 1 2 4 3 2 3 2 2 2 2 6 11 10 9 11 7 5 2 3 3 3 3 2 3 1 4 6 9 14 19 22 24 25 25 24 24 23 23 22 25 30 29 28 26 26 26 25 25 25 25 25 25 26 25 24 24 23 23 22 22 21 20 20 21 21 21 20 19 19 19 19 19 20 21 21 21 21 18 16 16 16 15 15 15 14 13 13 13 13 13
7 4 2 3 2 1 2 2 3 4 2 4 4 5 5 4 4 8 12 10 5 4 2 3 2 2 3 3 2 5 5 2 5 7 11 17 21 22 23 24 24 24 23 22 22 22 26 30 30 28 26 26 26 24 25 24 24 25 26 26 24 24 23 22 21 21 22 23 22 21 20 19 18 18 18 18 19 19 19 19 19 20 20 20 18 16 16 15 14 15 14 13 13 13 12 12 12
4 2 1 1 2 1 1 2 3 3 2 4 5 6 7 9 7 9 10 7 4 3 5 4 3 4 1 3 1 5 7 3 8 12 15 20 21 22 23 22 24 24 22 21 20 22 26 30 30 28 27 26 25 24 24 24 24 25 26 25 23 24 23 21 21 21 21 22 22 21 19 19 18 17 18 19 20 19 18 17 17 19 20 20 18 17 16 15 15 15 15 14 13 11 11 11 12
2 1 1 1 2 0 1 2 3 3 4 5 6 6 8 9 8 9 10 9 6 5 8 7 5 5 3 5 3 4 6 7 13 16 18 21 21 22 22 22 24 23 22 20 20 22 23 28 29 28 27 26 25 24 23 23 23 24 24 24 23 23 21 20 20 21 21 21 21 20 19 19 18 18 19 20 19 18 17 15 15 17 19 18 17 17 16 15 15 16 15 14 12 10 10 11 12
1 1 1 1 1 1 2 3 2 2 4 5 7 8 8 8 6 8 10 11 8 6 6 4 4 3 5 5 4 2 2 9 16 18 19 20 21 20 21 22 23 24 23 20 20 21 21 26 28 27 26 25 25 23 22 22 23 23 23 23 23 22 21 19 20 21 20 20 20 19 19 18 18 18 18 18 18 17 15 14 15 15 17 16 15 15 15 15 15 16 16 15 13 11 10 11 13
0 1 0 1 1 2 3 4 3 3 4 5 6 5 5 5 5 8 9 10 8 5 4 5 6 5 6 4 3 2 4 11 15 18 19 19 19 20 21 21 22 25 24 22 21 20 20 23 25 26 25 24 23 22 21 22 23 22 22 22 22 22 21 20 19 19 19 19 19 18 18 17 17 16 16 16 16 15 13 14 14 13 15 16 15 15 15 14 13 13 15 15 13 11 11 12 14
1 1 0 2 2 2 2 3 3 5 6 5 3 0 2 5 5 9 10 9 7 4 5 6 6 6 6 4 3 4 7 11 15 18 19 18 18 19 20 20 21 23 23 23 21 20 21 21 22 23 24 23 22 21 21 21 22 21 21 22 22 21 20 20 19 18 18 18 18 17 16 16 15 15 15 15 14 13 13 14 14 13 14 15 15 15 14 14 13 12 13 13 12 12 11 12 13
1 2 1 2 1 1 0 2 3 5 5 1 1 1 3 5 7 9 9 7 4 2 3 5 5 5 4 4 3 5 7 10 15 17 18 18 17 18 19 20 20 21 22 22 22 21 21 21 21 21 22 22 21 21 20 20 21 21 20 20 20 20 20 19 18 18 18 17 17 17 16 16 15 15 14 14 14 13 14 15 15 14 14 14 14 14 14 14 13 12 12 12 12 12 12 12 13
1 2 2 2 0 1 1 2 2 3 3 1 0 3 4 3 7 7 6 6 3 2 1 3 5 4 3 4 3 5 8 12 16 16 17 17 17 18 19 21 21 22 22 21 21 22 21 20 21 21 21 21 21 20 19 19 20 20 20 19 19 20 20 19 18 18 17 17 17 17 16 16 15 14 13 13 14 14 14 14 15 14 14 14 13 13 13 14 13 12 12 12 11 12 12 11 13
2 1 0 1 1 1 2 2 1 2 1 2 1 6 7 1 5 7 4 6 3 3 1 4 2 0 4 7 5 8 13 16 18 17 17 18 18 18 20 22 21 22 22 20 20 21 20 21 22 22 21 21 21 20 17 18 20 20 20 19 20 19 19 19 19 19 18 17 17 17 16 15 15 14 13 12 13 13 13 13 13 13 12 12 12 12 12 12 12 12 12 12 12 12 12 11 12
1 1 1 1 2 2 3 3 1 2 1 1 1 6 10 4 4 6 4 3 2 3 2 2 1 3 4 7 5 13 19 20 20 19 18 19 20 19 21 22 21 21 21 20 20 20 20 22 22 22 22 20 20 19 17 18 19 19 19 19 19 19 18 19 19 19 18 18 17 17 16 16 15 14 13 13 13 13 13 12 12 11 11 11 11 11 11 11 11 12 12 13 12 12 12 11 12
1 1 1 2 3 3 4 4 3 1 2 3 5 8 10 9 6 4 1 0 3 3 4 2 2 3 3 3 8 20 23 21 22 21 20 20 20 20 21 21 20 20 20 20 20 20 19 22 23 22 21 20 20 19 17 18 18 18 18 18 18 18 18 19 19 19 18 18 17 18 17 17 17 15 14 14 13 13 13 11 10 10 10 10 11 11 11 11 11 11 11 12 12 11 12 12 12
2 2 2 4 3 3 4 4 3 1 5 7 9 7 7 11 9 4 1 1 3 2 3 1 3 3 1 7 15 23 24 23 24 22 21 21 19 19 19 20 20 19 18 20 22 21 20 22 22 22 21 20 20 19 18 19 19 18 18 18 17 17 18 18 19 19 18 17 17 17 17 17 16 15 14 13 12 12 11 11 10 10 10 10 10 10 10 10 11 11 11 12 12 12 12 12 12
1 2 3 4 2 1 2 2 1 2 7 9 9 6 5 8 6 3 4 2 2 2 1 0 1 4 6 12 18 22 23 24 24 22 21 21 20 20 20 20 20 20 19 20 23 22 21 22 22 21 21 21 20 19 19 19 20 18 17 17 18 17 17 18 18 18 17 16 16 17 16 15 14 13 12 12 12 12 12 12 12 11 10 10 9 9 10 10 10 10 10 11 12 12 11 11 13
1 2 5 3 2 1 2 3 3 4 5 9 10 6 6 6 3 3 5 4 4 5 2 3 5 6 8 12 17 21 22 22 21 19 19 20 19 19 20 20 20 21 20 20 23 23 21 22 22 21 21 21 19 19 19 19 21 19 17 19 19 17 17 17 17 18 17 16 16 16 15 14 13 13 12 13 12 12 12 12 12 11 10 9 8 9 10 10 10 10 10 11 12 12 11 12 13
2 3 3 3 2 1 2 4 6 5 3 5 9 9 10 6 1 4 5 5 4 4 6 7 7 10 12 13 17 19 20 20 18 17 16 16 16 14 14 15 17 19 19 20 22 22 21 21 21 21 21 20 18 19 19 19 22 21 20 20 18 16 16 16 17 17 17 16 15 14 14 14 14 13 12 11 10 10 10 11 11 10 10 9 8 9 10 11 11 10 10 11 12 12 11 12 12
3 4 1 4 2 3 2 5 6 3 1 4 8 8 9 7 4 5 4 5 4 1 5 9 8 11 14 15 16 17 17 16 15 14 13 13 12 11 10 11 12 13 16 19 20 20 22 21 21 22 21 20 18 19 19 19 22 22 20 19 16 14 14 15 16 17 17 17 15 14 13 14 13 12 11 11 10 10 11 12 11 10 10 9 9 9 11 12 11 11 10 11 12 12 11 11 13
4 4 0 2 3 3 4 6 6 2 2 6 6 5 5 8 8 3 4 8 5 1 3 8 9 11 14 16 15 15 15 13 14 15 14 13 10 7 6 7 8 9 12 16 19 20 22 21 20 21 20 20 19 19 20 19 20 21 19 16 13 12 13 15 17 17 17 17 15 13 13 12 11 11 10 10 10 9 11 11 11 11 10 10 10 10 11 12 11 11 10 11 12 12 12 12 14
7 4 1 3 3 4 5 6 7 4 5 7 5 5 5 7 7 4 5 8 4 3 4 7 9 11 13 15 14 14 14 14 17 18 16 15 14 13 8 5 6 10 12 15 19 21 22 22 21 21 20 21 20 20 21 19 19 19 17 14 11 12 13 15 18 18 18 17 15 14 13 13 13 12 11 10 10 10 11 11 10 10 10 9 10 11 11 11 11 10 11 12 12 12 12 14 15
9 7 2 4 3 4 5 6 8 6 6 5 5 7 5 5 4 4 8 6 1 2 4 8 10 11 13 14 15 14 14 16 18 18 17 15 17 18 14 10 7 8 12 14 17 20 21 22 21 21 22 22 21 20 22 21 20 18 14 12 12 12 12 16 19 18 17 16 15 15 14 13 14 14 13 12 12 12 13 12 10 10 10 9 9 10 10 10 10 10 11 12 13 13 13 15 16
5 6 4 6 6 4 4 6 8 6 3 2 5 9 5 2 3 4 6 3 1 3 6 9 11 12 13 13 14 14 14 16 18 19 18 15 16 16 13 12 8 5 9 12 17 21 21 22 22 23 24 25 24 22 23 22 19 16 13 12 12 11 13 17 17 16 16 15 15 15 14 13 13 13 13 13 13 13 13 12 10 9 9 9 9 9 9 10 10 9 10 12 14 14 14 16 17
2 4 5 7 7 5 4 6 6 4 3 5 7 10 5 2 2 4 2 1 4 7 8 9 11 12 13 13 13 12 13 17 20 20 19 18 18 18 18 18 15 10 10 12 19 23 23 24 25 25 25 26 25 23 23 24 20 15 13 13 12 13 17 17 15 15 14 13 14 15 13 12 11 12 12 13 13 12 12 11 10 9 8 9 9 8 9 9 9 9 10 12 13 15 16 17 17
0 1 4 5 4 4 3 5 5 3 4 6 6 6 3 1 2 4 2 2 6 7 10 10 11 12 13 14 13 11 12 17 21 21 21 22 20 23 27 29 28 25 20 23 27 31 32 32 30 29 28 27 25 23 23 22 19 15 14 13 13 18 19 16 14 14 14 14 14 14 12 11 11 11 11 11 11 11 10 10 9 9 8 9 9 8 8 9 10 10 10 11 12 14 16 15 13
2 1 4 4 4 4 2 3 3 2 4 5 5 5 2 3 5 3 3 4 6 6 10 11 10 11 12 13 12 10 11 16 18 19 22 22 22 30 34 36 34 29 28 35 36 33 33 35 32 30 30 27 24 23 22 18 15 14 15 14 15 19 17 15 14 13 15 15 14 13 11 10 9 10 10 10 10 10 9 9 8 8 9 9 8 8 7 8 9 10 11 11 12 13 12 10 9
3 0 2 3 5 4 1 1 2 2 3 3 4 5 3 4 6 5 3 6 8 6 8 10 10 11 11 13 11 10 12 13 13 17 21 21 24 33 38 37 25 12 16 30 32 25 24 27 25 23 24 22 19 19 19 16 13 14 15 13 16 18 16 15 14 13 15 15 13 12 10 9 8 8 8 9 9 8 8 8 7 8 9 8 8 8 8 8 9 9 11 12 13 12 9 8 9
2 1 1 1 3 3 2 1 2 2 1 2 5 5 4 3 5 5 2 7 8 7 8 10 10 10 11 12 12 11 11 12 15 19 24 26 25 28 35 33 18 7 12 22 23 19 19 22 20 18 19 20 20 18 16 16 15 17 16 14 16 18 17 16 14 13 15 14 12 11 9 8 7 6 7 7 7 7 7 7 6 7 8 8 8 8 8 8 8 8 9 11 11 10 9 8 8
1 2 2 1 2 2 4 1 1 2 2 2 4 4 4 3 3 4 1 7 8 7 8 10 11 12 13 12 11 11 11 13 17 20 24 26 22 25 30 25 14 11 17 20 19 18 19 20 19 19 21 25 26 20 15 15 16 19 18 16 18 19 18 17 14 13 14 13 12 10 8 7 6 6 6 6 6 5 5 6 7 7 8 9 8 9 9 8 9 8 7 8 9 9 9 9 8
2 2 2 1 1 2 3 1 2 3 2 4 2 2 4 2 1 2 3 8 9 8 8 10 11 12 13 11 10 11 11 13 15 17 21 20 19 27 28 20 13 13 17 19 19 18 18 20 21 23 25 26 26 21 18 17 17 18 18 16 18 18 17 16 14 13 12 11 10 9 7 7 6 6 6 6 5 5 5 6 7 8 8 9 9 10 10 9 9 8 7 6 7 8 9 9 9
1 1 2 1 2 2 2 1 2 5 3 3 3 2 6 7 2 1 5 9 9 9 9 10 10 10 13 11 10 11 12 13 14 16 19 18 18 26 26 17 14 14 15 17 18 17 18 21 23 24 23 21 20 19 19 19 17 16 15 15 17 17 16 15 14 14 12 10 10 9 8 7 7 7 7 6 6 6 6 6 7 8 8 8 10 10 10 9 9 8 8 6 6 7 9 10 10
2 1 2 2 2 2 2 2 2 5 5 4 4 4 8 11 6 3 6 8 10 11 9 10 11 11 13 13 11 12 13 15 16 17 19 18 17 20 20 15 14 15 16 17 18 19 19 20 21 23 23 20 20 19 18 19 18 16 14 14 16 17 16 16 15 13 12 10 10 9 8 8 8 8 8 7 7 7 8 8 8 9 9 8 9 11 11 10 10 8 7 7 7 7 8 10 11
3 1 2 3 4 3 2 3 4 4 6 8 8 7 7 11 8 4 5 6 10 11 9 9 11 12 13 13 12 12 15 16 17 18 18 18 15 15 16 15 15 16 17 18 19 20 19 19 20 23 26 25 24 22 19 18 18 17 15 15 16 15 15 16 14 12 12 11 10 9 8 9 9 9 9 8 9 9 9 9 9 9 10 9 9 12 12 11 11 8 7 8 9 8 8 10 11
3 1 3 4 6 4 1 4 6 3 4 7 6 6 7 10 10 7 4 4 8 10 9 11 12 12 13 14 14 13 15 15 14 16 16 16 14 14 15 15 16 17 19 20 19 19 18 19 22 24 27 28 26 23 21 21 19 18 17 16 16 14 14 14 13 13 13 12 10 8 8 8 8 9 9 9 9 10 10 10 9 9 10 10 10 11 11 12 11 8 7 8 9 11 11 10 12
2 3 4 5 6 4 1 5 6 1 3 5 3 4 8 10 11 9 3 5 9 11 12 14 15 15 14 15 17 15 13 11 10 12 14 16 15 16 16 16 17 18 20 21 19 18 19 20 22 23 25 27 27 25 23 22 21 21 19 15 15 14 13 13 14 15 14 11 10 9 8 7 7 8 8 8 8 10 11 10 9 9 11 10 10 11 10 12 12 8 9 9 9 11 11 12 14
3 2 3 5 4 3 3 4 2 1 3 5 3 4 10 12 12 11 6 7 9 9 12 14 16 16 15 15 17 17 15 13 12 13 15 18 18 17 17 17 18 18 19 20 20 18 19 21 20 21 24 25 27 26 26 24 21 21 18 14 13 12 11 11 13 14 13 11 10 9 8 7 7 7 7 7 7 9 10 10 9 10 11 10 11 13 11 11 11 9 10 11 11 11 11 13 14
3 3 4 5 1 1 4 3 1 2 4 7 7 6 9 10 10 10 5 6 6 5 8 12 14 16 17 17 17 18 19 18 17 17 17 18 18 17 17 17 17 17 17 19 21 20 20 21 20 21 24 25 26 28 27 24 20 19 15 11 12 11 11 11 11 12 11 11 10 9 8 7 7 7 8 7 7 9 9 9 10 11 12 12 12 13 12 10 10 10 10 11 13 13 13 12 11
3 4 6 6 3 6 8 3 2 4 3 4 6 6 6 5 6 5 1 1 4 4 7 11 14 17 16 16 16 18 19 20 19 19 19 18 17 17 16 16 16 16 17 18 20 21 21 23 23 23 25 26 27 28 27 23 19 18 15 12 12 10 11 12 11 11 11 10 10 10 9 8 7 7 8 8 8 10 10 9 10 10 12 13 12 12 12 11 11 11 11 11 13 14 16 12 9
2 5 9 11 10 10 7 0 3 5 2 2 1 4 3 1 3 4 0 2 4 3 8 12 15 17 16 13 15 17 18 18 18 18 19 17 16 16 15 15 16 16 16 16 19 20 21 23 22 24 28 29 29 27 26 24 22 20 18 16 14 13 13 12 12 12 10 9 9 10 10 9 8 8 8 9 10 10 11 10 10 10 11 12 13 11 10 12 13 13 13 13 13 12 15 12 10
3 3 8 11 10 7 5 4 2 3 2 1 0 4 4 2 3 3 2 5 6 3 6 10 11 13 15 13 13 15 16 16 16 18 18 16 15 15 14 15 16 15 16 17 19 20 21 24 22 24 28 29 28 26 26 26 24 21 18 16 14 13 14 13 11 11 10 9 10 11 11 10 9 9 9 10 11 10 10 10 10 10 10 11 13 11 10 13 15 15 15 15 14 13 13 12 11
2 2 5 7 7 7 7 7 6 3 3 2 2 2 5 4 2 2 3 6 7 3 2 4 7 10 12 13 13 13 13 14 14 16 17 16 15 14 13 14 14 15 17 18 21 21 21 24 25 25 24 23 23 24 27 27 23 19 17 15 12 12 14 13 11 10 11 11 10 10 11 11 11 11 11 11 12 11 11 12 11 10 10 11 12 12 11 11 13 15 15 14 14 13 13 11 10
3 3 4 3 4 5 6 6 5 1 2 4 2 3 4 5 1 1 1 4 5 4 6 7 6 7 10 12 13 11 11 12 12 13 13 13 13 12 12 13 14 16 18 19 20 21 21 22 26 26 22 20 22 24 26 25 20 18 17 14 12 13 14 14 12 11 12 11 10 11 12 12 12 12 12 12 12 11 11 12 12 10 10 11 12 11 11 10 11 14 16 15 15 13 12 12 11
1 5 4 3 3 2 3 4 3 2 2 6 3 5 4 5 2 1 1 2 3 6 8 8 7 7 8 10 11 10 7 6 7 8 8 8 8 10 12 13 15 17 20 20 17 20 23 22 24 27 23 20 23 25 25 23 20 20 19 15 14 16 17 15 13 11 11 10 11 13 13 13 14 13 13 12 12 11 11 12 12 11 10 10 11 11 11 11 11 13 14 15 15 13 12 13 12
3 5 4 2 3 2 2 1 1 2 4 4 3 6 5 4 2 1 0 1 4 7 8 9 9 8 8 8 9 9 5 3 4 5 5 5 5 9 12 14 16 17 19 20 17 18 23 24 23 24 23 21 23 25 24 23 22 22 20 18 17 18 19 18 15 13 11 11 12 13 13 14 14 14 14 13 13 12 12 12 12 11 10 10 10 10 11 11 11 12 13 13 13 12 12 12 12
1 2 1 1 1 2 2 2 2 4 4 1 1 4 4 5 3 0 1 3 6 8 9 11 12 10 8 8 8 7 5 4 5 4 3 3 4 9 12 13 16 16 18 20 20 19 23 24 23 22 22 22 23 24 23 22 23 22 19 18 18 19 20 19 17 16 15 15 14 12 12 13 13 14 14 14 14 13 13 12 11 11 11 11 11 10 9 9 9 10 12 13 13 13 12 12 11
3 2 2 2 1 2 2 2 2 4 3 2 1 3 3 6 4 2 3 5 7 7 8 11 12 10 7 7 7 5 4 5 4 2 1 1 3 5 7 11 15 16 16 18 18 19 21 22 23 24 22 22 23 21 20 21 21 20 17 17 18 19 20 19 18 18 18 18 16 15 14 14 14 15 15 14 14 14 12 11 10 10 10 11 11 10 9 9 9 9 11 12 12 14 14 14 13
6 5 4 4 2 2 2 2 1 4 2 2 0 2 2 4 1 3 5 6 7 7 7 8 8 7 5 4 5 4 5 5 4 4 4 5 6 6 5 4 9 11 13 15 14 17 21 20 21 22 21 20 21 19 19 20 19 17 16 16 19 21 20 18 18 19 19 19 18 18 18 17 17 16 14 14 13 12 10 9 8 7 8 9 10 11 11 10 9 9 9 10 11 13 14 14 14
5 4 3 4 3 2 2 3 3 4 0 3 1 2 3 3 1 3 4 4 6 6 6 6 5 4 2 2 4 5 6 6 7 8 9 9 10 13 9 6 7 7 7 11 11 14 17 16 16 19 19 18 18 18 19 20 18 17 17 17 20 21 20 19 19 21 20 18 18 18 17 16 15 14 13 13 12 10 8 7 6 5 5 8 11 11 11 11 10 9 10 10 11 12 12 12 13
2 2 2 3 3 2 0 0 0 1 0 1 1 2 2 2 1 2 3 3 5 6 6 5 4 2 1 1 2 5 6 8 10 9 9 9 10 15 16 14 13 9 7 7 9 12 13 12 13 17 19 18 17 18 19 19 18 19 18 19 21 22 20 19 20 22 20 19 18 18 17 16 15 13 12 11 10 9 7 6 6 5 4 8 10 11 10 10 10 9 9 11 11 11 10 10 10
3 3 4 1 1 2 2 0 2 1 3 1 1 2 1 1 1 1 2 3 5 6 6 6 6 5 5 5 5 4 6 9 9 7 7 8 9 11 14 15 14 12 9 8 10 12 12 12 14 17 19 19 20 21 20 20 20 20 20 20 22 22 20 19 22 23 21 20 19 17 17 16 14 13 12 12 10 8 7 6 7 6 5 7 8 8 8 9 9 9 9 10 10 10 9 8 7
3 3 3 3 1 1 1 1 1 0 4 2 0 2 2 2 2 1 2 3 4 6 6 7 7 7 6 5 6 6 6 8 8 7 7 8 9 11 13 15 15 12 10 10 12 14 15 17 19 21 22 23 24 23 23 22 21 21 21 22 22 23 20 19 22 22 21 21 19 17 16 15 15 14 13 12 11 10 8 7 6 6 6 7 6 6 7 7 7 8 9 10 9 8 8 7 7
1 1 2 3 2 2 2 2 2 2 3 1 1 1 2 3 2 0 1 3 5 5 6 7 7 7 6 4 5 6 6 7 7 8 7 7 9 11 13 16 17 14 11 13 17 19 20 23 24 23 24 24 24 24 24 23 21 22 23 22 22 23 21 20 22 21 20 20 19 17 16 16 16 14 12 12 12 10 8 6 6 6 6 5 5 6 6 6 6 7 8 8 8 7 7 7 7
1 1 1 1 2 1 2 1 1 2 3 1 1 1 2 3 1 0 2 3 3 4 5 6 6 6 6 5 3 4 5 5 5 6 6 7 11 13 15 17 19 18 15 17 22 25 24 23 22 20 20 22 22 23 23 22 22 23 23 22 22 24 22 21 21 21 20 20 19 17 17 17 16 13 12 12 11 10 7 5 5 7 6 4 5 7 7 6 6 7 8 8 7 7 7 8 8
2 3 4 2 1 0 1 1 0 1 2 2 2 2 1 1 1 2 3 3 1 2 4 6 7 7 7 7 6 3 3 3 3 6 7 8 11 15 19 20 20 21 20 21 24 24 20 19 20 20 21 23 23 24 23 23 23 24 23 22 22 23 23 21 21 20 20 20 19 18 18 16 15 13 12 11 10 9 7 5 6 7 6 5 6 8 8 7 7 8 8 8 8 7 7 8 8
2 3 3 3 2 2 3 3 1 1 1 1 2 3 1 2 2 3 2 1 2 3 5 6 7 9 8 8 9 8 7 7 5 3 5 8 11 14 17 20 22 23 24 22 19 18 16 16 20 24 24 24 25 25 24 24 24 24 23 22 22 22 22 22 21 19 19 19 19 18 17 16 15 14 12 11 10 9 7 6 7 8 6 5 6 7 7 7 7 7 8 9 8 6 6 7 8
Wind_Direction
145 141 126 115 110 129 121 309 177 72 214 249 240 249 215 207 283 289 273 277 257 197 98 317 287 237 239 281 276 250 47 272 235 159 248 56 134 150 146 138 140 140 139 139 139 142 143 145 143 142 140 140 141 143 143 139 139 140 141 142 141 141 141 140 139 142 142 141 139 137 137 136 136 134 133 133 132 131 132 131 129 127 128 130 129 128 126 127 125 120 119 120 120 120 116 111 107
148 138 122 118 108 146 140 335 215 99 190 255 227 207 309 158 211 242 257 275 266 303 321 308 260 202 228 304 319 215 114 29 16 60 66 127 133 137 143 141 141 140 139 139 139 141 143 144 143 142 140 139 138 139 143 144 143 142 141 141 141 140 140 140 139 140 140 139 137 138 139 136 135 132 133 135 133 131 129 130 130 129 130 131 130 130 129 127 126 122 122 122 120 121 118 115 113
144 134 130 131 92 19 125 359 229 131 195 258 251 187 210 195 211 217 230 254 283 301 309 303 253 198 235 231 242 256 112 60 105 100 112 141 137 138 145 142 141 140 139 140 140 141 143 145 144 143 141 139 135 134 137 141 144 144 143 142 141 140 141 142 139 137 137 138 138 139 138 136 135 133 134 134 132 130 131 132 132 132 131 133 133 132 131 128 128 127 124 124 123 123 122 120 118
140 133 150 158 112 7 133 87 134 163 222 253 287 180 215 218 214 225 258 278 295 294 299 301 245 122 287 240 359 305 68 63 129 122 135 149 144 144 145 142 141 140 141 141 141 142 145 147 145 143 142 139 135 134 134 137 141 144 144 143 143 143 144 144 141 140 139 141 143 143 141 140 138 136 137 134 131 132 134 134 133 134 134 135 134 132 130 129 130 128 127 126 126 126 126 126 123
136 124 153 194 180 137 130 88 107 215 228 212 275 153 222 220 237 296 292 293 290 287 284 259 222 84 34 33 21 334 46 67 125 143 143 142 144 146 145 143 141 142 144 143 142 142 146 148 145 144 143 141 138 136 135 136 139 142 143 143 143 142 143 143 144 143 142 143 146 146 142 139 137 136 135 133 132 132 133 136 136 136 137 137 136 134 132 133 132 129 129 129 129 129 129 128 123
135 115 90 98 98 95 147 157 174 228 229 196 256 273 236 224 298 298 293 294 280 278 272 232 216 121 113 54 61 46 341 257 138 148 144 141 146 147 146 145 145 145 145 145 143 143 148 150 147 146 146 144 142 138 138 138 140 142 142 143 142 140 140 141 143 144 145 145 145 144 140 137 134 134 134 135 135 134 134 138 141 139 140 142 139 136 139 135 131 129 130 132 134 134 132 127 120
155 138 72 104 100 334 184 199 212 232 223 190 248 283 282 304 300 294 301 306 284 256 247 218 173 145 126 117 117 43 352 238 148 149 147 144 145 146 147 147 146 146 146 146 143 144 150 152 149 149 149 146 145 143 142 142 142 143 144 144 142 142 142 144 146 147 148 147 147 145 143 140 136 135 138 141 140 139 137 138 145 145 142 145 143 140 143 137 132 134 133 135 136 134 130 122 118
158 154 311 161 124 17 178 229 237 228 220 210 253 277 289 305 296 291 295 294 298 268 257 252 211 223 130 122 153 36 26 87 133 139 145 145 145 148 149 148 146 146 146 145 144 146 152 154 152 152 150 148 148 147 146 145 145 145 146 144 144 145 147 150 152 150 148 148 148 146 145 143 142 143 145 145 143 143 140 135 140 148 148 148 148 146 144 142 141 140 135 134 136 131 121 115 117
91 60 199 187 147 141 198 245 256 231 245 256 269 276 287 292 280 280 279 273 276 265 258 247 217 218 129 104 97 49 43 98 125 133 144 147 147 149 149 149 147 147 147 146 146 147 152 156 155 153 151 151 150 149 149 148 147 147 146 145 145 147 148 150 151 149 147 147 149 147 145 145 145 147 148 148 148 146 141 134 133 144 153 152 148 147 146 146 145 139 135 136 136 129 116 113 118
42 17 167 140 155 212 252 247 250 236 254 273 281 284 286 283 272 270 275 280 277 265 259 207 188 182 123 111 97 58 77 122 128 135 147 149 148 150 149 151 149 147 148 146 147 148 152 156 155 154 153 152 151 150 150 150 150 150 148 148 147 148 150 149 149 150 149 149 150 148 146 146 146 149 151 151 152 149 142 139 137 139 151 154 147 145 143 143 142 137 138 139 136 128 117 116 120
95 39 169 146 168 221 242 250 249 272 288 294 290 275 278 285 279 280 282 288 288 267 233 177 174 152 119 109 102 101 139 141 138 141 150 150 149 151 150 151 151 150 148 148 149 148 151 154 154 154 153 152 151 151 150 151 154 154 153 151 150 150 151 150 150 150 151 151 149 147 146 147 149 150 152 152 152 150 145 142 139 133 139 146 143 141 140 140 139 134 137 138 134 126 118 119 123
165 123 229 174 193 227 234 269 282 300 295 293 304 71 317 300 301 315 313 305 303 267 208 192 174 143 128 121 119 128 142 152 147 146 151 150 150 151 150 149 152 152 149 150 149 149 151 152 153 152 153 153 152 152 151 154 156 157 156 153 151 150 150 151 151 152 154 153 150 148 148 149 152 152 150 150 146 141 142 142 136 127 128 137 139 140 141 140 136 130 132 134 131 124 120 121 125
176 145 171 168 209 232 197 287 292 307 301 297 336 26 337 322 336 330 317 316 312 271 209 190 164 126 122 119 120 147 153 156 149 148 151 149 149 149 149 148 150 153 151 151 149 150 151 152 152 151 152 154 154 154 155 156 157 158 156 151 148 146 147 149 151 155 155 153 152 152 153 155 155 152 149 148 143 134 135 138 134 128 128 134 139 139 138 137 137 133 131 131 128 122 120 123 128
175 164 197 171 182 214 196 272 278 287 297 31 352 334 334 336 335 318 309 334 18 339 327 152 156 127 113 126 152 177 164 157 151 150 150 148 147 146 148 148 149 154 155 154 153 152 151 151 153 153 155 156 156 157 158 158 158 156 152 147 144 144 145 148 151 153 153 154 157 158 158 157 154 152 150 146 142 135 134 138 135 130 129 133 138 138 136 137 139 137 132 129 126 121 119 124 130
178 154 188 184 198 196 208 238 284 257 256 38 17 337 332 16 327 320 328 328 23 33 21 131 163 334 155 174 191 183 165 156 154 151 149 147 145 145 146 149 151 155 157 157 156 154 152 152 154 158 160 158 158 156 156 158 156 152 149 146 145 146 148 150 150 149 150 153 157 158 155 153 152 150 149 146 142 138 138 140 134 129 129 132 138 142 140 138 138 137 132 129 127 123 120 122 130
144 139 111 226 225 194 197 199 210 257 272 336 328 347 338 359 349 333 336 299 82 55 10 120 336 334 185 199 176 159 159 155 153 151 147 145 144 145 146 150 152 155 159 160 159 157 153 154 158 163 162 159 159 155 154 157 155 151 149 148 148 149 151 151 150 148 149 151 150 149 147 146 147 145 145 146 143 140 138 135 130 130 133 134 139 144 146 145 139 135 131 129 129 127 123 121 128
155 183 153 230 221 190 189 192 186 258 349 322 332 356 341 336 347 344 348 86 110 51 354 360 332 327 239 202 135 145 152 152 152 150 145 142 143 144 147 151 153 158 163 164 163 161 157 158 161 165 163 160 158 155 156 156 155 153 152 151 151 150 153 153 151 150 149 148 145 141 143 144 142 138 138 140 138 137 137 134 135 140 141 141 143 145 151 151 143 137 132 131 132 132 126 119 125
202 172 199 230 208 184 186 196 187 328 337 334 332 346 339 328 340 342 302 89 110 70 25 355 359 13 113 122 129 143 149 151 152 151 148 147 147 147 149 154 158 162 165 167 168 166 163 163 164 165 164 161 159 157 157 157 157 155 153 152 150 151 154 153 152 153 149 146 145 142 142 143 140 137 137 137 137 138 138 138 140 141 139 139 141 142 146 149 148 144 137 135 136 134 128 123 128
200 137 225 229 162 164 186 211 235 303 320 326 323 332 331 318 326 325 311 322 177 178 51 258 62 80 115 124 134 145 149 153 154 154 153 153 155 154 155 159 163 164 166 171 172 170 167 166 166 166 165 163 162 160 158 159 160 154 150 152 150 150 151 151 151 154 150 147 149 147 145 144 141 137 138 139 136 134 133 136 135 133 132 130 131 133 136 144 149 144 137 136 137 136 134 131 132
183 190 236 218 127 229 209 233 262 270 298 315 317 322 311 304 299 292 316 312 223 209 194 188 191 164 147 141 146 150 152 155 155 154 154 156 159 160 161 163 165 166 168 172 172 172 170 169 170 168 167 166 164 161 158 161 161 156 151 152 152 150 149 150 152 153 152 152 152 150 148 143 138 134 137 136 131 128 128 132 131 127 123 119 120 124 126 134 137 134 134 137 140 141 141 139 138
165 217 228 110 125 220 203 241 268 275 273 302 309 311 307 318 299 273 310 308 260 230 206 200 204 179 164 159 156 154 153 154 152 151 152 154 156 158 161 163 165 167 169 169 170 172 173 173 173 170 168 168 164 159 159 163 162 159 155 153 153 154 153 152 153 154 154 153 151 149 148 142 138 138 138 135 129 128 130 129 125 118 114 111 111 116 118 123 125 126 130 138 142 142 139 141 146
195 230 172 118 210 286 290 273 273 270 278 293 298 306 312 323 295 269 284 280 284 309 211 209 205 179 168 165 159 153 152 151 143 139 142 149 154 155 157 157 161 167 167 166 167 172 176 175 174 172 170 169 164 160 162 164 163 160 157 156 156 158 157 155 154 154 154 154 152 148 145 143 141 140 138 137 132 130 130 127 121 113 113 111 108 113 117 119 121 124 128 135 139 139 135 136 145
237 240 150 194 235 273 272 277 280 288 296 285 293 306 318 316 308 296 241 251 259 335 234 217 198 176 168 161 154 149 147 140 135 140 148 151 144 129 137 145 152 165 168 169 169 172 176 178 176 172 170 169 165 165 165 165 165 162 160 160 159 160 159 157 156 155 156 156 154 149 146 143 139 139 139 137 134 131 129 125 120 116 117 116 114 116 118 119 119 121 123 128 135 137 132 131 142
245 248 354 261 225 242 252 266 277 284 267 267 286 297 299 293 309 345 276 262 257 264 234 206 181 164 160 152 145 145 142 137 141 149 150 140 124 113 107 127 169 176 173 175 174 174 179 181 177 171 171 171 169 168 168 168 169 165 163 162 161 162 161 159 159 157 157 157 156 155 151 146 143 145 144 138 136 133 129 125 122 122 123 122 122 122 124 125 122 121 121 126 136 138 130 131 140
239 246 288 274 246 245 257 268 272 272 262 262 274 278 278 265 288 311 285 280 253 229 191 168 159 153 151 145 143 145 142 141 143 142 137 131 134 134 123 127 162 176 177 181 173 173 184 184 176 174 175 174 172 170 171 170 168 166 164 164 164 162 162 161 161 158 156 157 158 158 154 149 147 148 147 142 139 136 132 130 129 129 131 132 130 128 132 134 129 125 125 131 138 137 131 133 141
228 237 254 265 273 274 267 269 268 274 269 205 256 277 282 274 292 271 272 304 151 160 149 149 146 145 145 146 148 148 142 140 143 142 140 142 147 144 130 128 138 167 187 179 169 175 187 188 182 181 180 177 173 171 173 170 165 169 168 165 166 162 164 164 161 159 156 157 157 157 153 147 147 147 147 144 140 138 136 135 137 138 139 140 136 137 142 142 139 131 128 136 141 140 135 136 142
176 214 252 260 278 287 264 271 272 291 275 197 239 280 296 349 309 257 271 78 165 148 139 146 143 144 148 153 155 149 139 141 149 147 146 153 156 157 162 166 164 178 197 178 174 186 191 191 190 187 183 178 173 169 173 171 166 174 171 165 167 164 166 165 162 161 157 158 156 153 148 145 147 148 148 145 143 142 142 143 145 145 143 144 142 144 149 148 145 136 133 140 144 144 142 142 144
274 238 282 267 282 277 233 263 272 293 268 194 206 266 292 348 248 262 330 156 176 148 142 145 144 150 153 158 159 147 139 148 155 155 158 164 168 171 179 187 177 171 191 200 194 193 192 193 192 188 183 178 173 169 172 172 168 172 171 168 170 167 168 166 164 162 158 158 155 149 147 148 149 150 150 149 146 146 148 151 150 150 147 146 145 144 148 152 149 143 140 142 145 146 144 142 142
277 306 298 291 313 295 225 254 260 246 260 162 169 256 251 220 233 275 344 187 181 153 149 149 152 159 157 162 160 146 148 156 161 166 171 174 176 180 188 196 184 172 189 199 195 195 194 192 190 187 183 177 173 171 171 172 168 170 172 171 170 168 168 167 165 162 161 160 153 149 149 151 151 149 151 152 150 147 150 154 152 154 152 149 146 142 144 152 154 149 143 144 148 144 136 135 136
265 214 278 306 313 297 157 248 289 247 260 136 173 260 249 218 252 300 321 192 180 164 162 158 160 164 163 164 158 150 158 164 171 176 179 183 183 187 195 197 194 199 197 187 187 195 194 187 185 183 178 169 169 174 172 172 171 170 174 172 171 169 168 169 167 163 164 161 155 153 151 154 158 155 154 155 153 148 150 154 151 154 157 156 149 142 143 149 155 151 143 148 150 139 128 134 138
293 246 199 339 283 287 13 334 311 287 332 118 201 246 281 263 290 320 283 197 190 177 175 169 167 170 171 166 156 157 167 173 180 183 184 188 189 193 201 199 201 224 186 177 185 192 185 182 178 170 169 168 173 182 179 175 176 175 176 174 172 170 168 170 169 166 168 165 160 158 158 161 165 166 163 160 159 156 157 160 157 158 162 161 153 146 145 150 158 150 143 148 144 134 130 133 133
2 266 209 80 230 302 343 344 17 337 21 25 220 231 288 286 316 331 217 202 207 193 183 178 175 176 176 169 158 161 173 180 184 189 191 191 194 198 203 204 205 193 176 180 191 188 178 177 171 168 179 178 176 184 184 179 181 180 178 175 173 170 167 169 171 170 172 170 166 165 166 169 174 181 178 170 171 171 169 169 169 168 167 163 155 148 146 154 164 153 141 146 141 135 134 131 129
44 284 243 302 251 290 335 104 57 354 3 15 352 304 300 266 246 318 210 206 215 211 197 185 181 184 183 174 162 164 173 184 191 199 199 196 196 200 203 205 204 192 181 184 189 183 174 170 174 182 189 182 175 182 188 185 186 184 179 175 173 170 167 168 171 173 175 174 175 174 173 177 187 194 191 183 186 190 184 179 177 175 173 165 155 149 150 160 170 159 143 147 145 139 134 129 129
180 256 246 266 254 252 313 240 54 9 352 7 12 320 286 278 266 263 222 210 213 222 211 191 187 192 192 183 171 171 175 187 196 201 203 202 198 199 202 201 198 195 188 187 186 181 173 168 175 183 183 176 174 184 191 189 188 186 180 175 173 169 167 168 170 175 175 175 179 177 177 184 195 200 198 196 199 200 196 190 183 181 179 169 158 153 155 163 172 165 148 145 143 138 134 131 134
195 197 234 257 245 217 271 283 329 352 330 317 317 281 278 281 273 234 234 217 212 224 216 196 194 199 201 194 185 181 185 194 199 199 200 202 200 195 193 191 192 195 192 190 187 182 176 170 174 182 181 176 181 191 196 191 187 186 179 173 173 169 166 167 169 174 173 174 177 174 180 191 196 199 199 201 202 202 200 195 189 187 185 177 166 160 160 166 172 165 149 144 136 130 133 133 133
144 140 249 270 277 247 221 268 278 306 301 294 288 274 273 280 276 246 236 221 217 224 216 202 199 204 207 204 197 191 196 201 201 198 196 198 199 189 181 182 188 192 192 191 188 182 176 173 176 183 189 190 189 192 197 192 184 184 179 171 172 169 166 168 169 172 173 177 175 174 187 193 195 198 201 202 202 204 204 196 193 194 189 184 175 166 163 169 173 163 147 142 135 127 129 131 131
127 185 265 270 277 277 137 247 259 247 269 277 275 268 263 268 273 261 231 219 227 222 212 208 203 206 209 208 206 201 203 206 200 196 195 198 198 187 179 181 186 189 193 192 188 181 175 176 178 181 189 195 193 193 197 194 184 183 181 175 173 169 165 167 168 172 176 178 176 177 186 187 191 197 202 206 206 207 205 196 196 194 185 184 180 169 164 170 174 162 144 142 137 132 130 135 136
184 231 265 277 270 282 271 261 275 241 238 265 262 267 266 262 269 269 226 206 229 219 207 208 206 207 211 209 210 208 206 203 196 195 198 201 199 190 184 185 186 187 192 192 189 184 179 181 182 180 184 191 196 198 198 195 189 187 184 178 174 168 166 167 169 173 175 176 177 178 179 177 184 189 194 202 203 204 202 193 190 184 179 182 178 168 164 171 175 166 149 143 139 138 137 143 145
195 214 255 266 268 309 283 250 269 192 225 270 279 267 272 271 273 274 246 219 233 224 211 210 205 206 210 210 208 209 209 204 198 198 203 205 200 190 185 186 188 186 187 190 189 186 184 187 186 180 181 189 199 204 200 196 193 192 188 177 168 163 165 167 167 171 172 174 172 170 172 171 172 174 178 186 190 196 198 188 181 181 182 180 175 172 169 172 176 173 164 152 144 142 144 150 153
196 205 240 257 281 354 269 233 183 212 231 269 282 282 275 271 270 272 252 229 249 255 235 225 213 208 210 209 205 203 206 205 201 202 206 206 200 192 186 185 186 184 182 185 189 187 186 190 187 182 182 187 196 203 202 196 193 193 188 170 162 157 158 160 159 165 168 169 167 167 171 168 164 169 172 174 182 188 188 183 180 184 188 183 178 177 175 175 177 177 176 165 153 148 152 160 164
213 213 234 256 237 223 246 279 334 282 246 247 268 272 263 257 258 255 173 223 268 263 244 233 222 218 214 209 206 205 208 206 201 202 207 207 200 192 186 182 182 182 180 180 184 184 186 190 187 184 188 192 198 203 201 193 189 188 178 158 152 147 151 157 158 162 165 164 166 168 169 167 167 171 173 173 178 181 179 182 184 188 193 189 184 183 179 179 181 182 184 177 164 157 160 164 167
241 216 219 236 237 226 231 306 352 292 264 151 261 273 258 210 248 244 120 319 285 245 228 229 223 220 218 212 207 209 213 211 206 204 208 208 202 192 181 178 181 184 184 184 182 181 185 186 182 181 189 198 204 203 197 191 187 185 175 161 156 155 158 163 164 164 164 164 166 168 167 168 171 173 176 175 176 180 179 182 187 189 197 194 185 184 184 183 186 188 191 188 179 171 165 161 163
268 218 208 224 233 227 212 183 197 264 279 123 273 288 283 271 248 258 305 302 290 266 234 238 230 221 220 215 211 212 212 212 210 208 209 208 202 189 175 174 179 182 184 185 182 183 185 185 183 179 182 195 203 199 196 192 188 185 178 169 166 164 162 162 164 164 163 164 163 165 166 167 171 173 175 175 175 180 181 182 186 187 194 195 187 186 188 187 189 193 196 196 192 187 179 167 162
247 174 184 197 208 212 201 197 210 248 316 289 194 243 272 273 243 247 298 292 285 297 309 273 248 234 228 223 225 225 220 218 216 211 211 209 202 191 176 171 174 176 179 181 181 183 184 184 189 186 181 192 199 197 198 195 188 183 178 173 171 169 164 157 156 160 162 164 162 164 169 170 170 168 169 172 174 177 180 181 184 186 190 194 190 189 190 188 191 196 198 199 199 198 191 180 171
247 157 158 164 178 197 187 191 219 236 314 273 201 171 252 270 224 172 276 273 280 331 351 331 294 259 242 232 234 237 234 229 220 214 213 213 206 191 172 165 171 172 172 175 178 181 183 180 186 192 189 190 194 197 200 195 188 182 177 172 165 166 166 154 149 157 160 162 162 164 168 169 166 161 163 168 171 176 180 179 181 184 187 191 191 190 190 188 191 197 199 201 204 204 200 196 189
217 136 130 96 106 131 162 188 207 154 244 262 206 170 238 279 269 203 211 246 295 331 331 324 316 288 254 240 239 237 234 223 214 213 215 217 209 183 164 160 168 170 170 172 170 174 180 175 177 187 190 187 190 196 197 192 189 185 180 175 165 164 165 155 147 149 154 161 165 165 165 166 164 161 163 167 171 174 176 176 176 178 182 188 191 190 191 193 193 196 199 201 204 208 210 212 209
104 134 137 92 101 104 124 162 164 180 237 259 192 182 226 281 287 226 197 352 322 316 315 315 317 301 258 236 240 237 223 192 201 218 218 214 187 161 156 159 163 163 167 175 173 169 175 176 173 178 182 183 188 193 193 189 188 185 181 177 170 166 165 159 153 151 156 164 165 164 164 165 165 164 164 165 167 168 168 170 172 175 178 183 187 187 189 193 192 193 195 199 203 207 211 217 219
115 171 177 146 142 126 130 135 153 220 243 317 85 172 199 246 258 77 13 346 326 311 314 313 311 300 263 229 231 236 224 200 195 208 224 197 149 146 152 157 156 154 160 172 176 171 172 174 171 170 172 177 185 190 189 186 185 183 179 176 174 171 169 166 163 163 167 169 166 164 163 164 164 162 161 162 161 161 164 168 171 174 177 181 184 185 185 187 186 187 191 195 200 204 209 214 215
205 196 199 221 203 144 180 184 176 236 251 32 43 169 186 249 268 24 348 329 329 322 319 313 307 298 269 229 215 220 213 192 171 174 212 149 127 137 145 150 151 152 157 164 171 171 171 172 170 168 169 174 182 185 183 182 182 179 176 176 177 175 172 172 174 174 173 171 168 164 161 160 160 158 158 159 157 158 160 164 167 171 176 181 183 185 184 183 183 185 190 193 198 204 209 213 215
191 182 183 200 185 158 192 180 195 254 264 50 80 191 221 261 288 20 336 331 335 332 328 317 308 303 287 234 206 201 193 177 140 106 98 90 88 84 70 103 134 145 158 164 167 167 168 171 171 169 167 173 181 181 179 180 178 175 176 179 179 177 176 178 180 178 174 171 169 165 161 160 160 160 159 158 157 157 154 156 162 166 174 179 181 183 184 184 186 189 193 195 197 202 208 212 216
181 176 177 200 204 205 219 203 219 249 214 67 88 190 216 235 66 1 325 334 342 342 345 330 313 314 307 220 191 186 190 166 118 105 113 115 118 121 122 123 123 131 156 167 170 163 162 165 167 167 166 170 178 179 177 178 176 176 179 181 181 180 179 181 181 178 173 170 168 164 162 162 163 163 161 160 159 156 151 153 160 164 173 179 178 177 180 184 188 191 197 200 199 202 207 213 216
167 152 184 222 218 186 253 334 356 284 210 104 196 226 248 252 338 345 322 344 359 2 7 7 358 6 75 95 145 165 173 143 116 111 113 117 129 138 145 146 137 140 156 165 168 162 159 159 161 168 170 173 180 180 179 180 179 178 180 183 184 183 181 181 179 176 173 171 169 165 165 166 167 166 165 163 162 159 156 155 157 157 164 174 177 177 180 186 189 193 197 200 201 204 206 209 213
131 177 202 200 168 139 129 87 69 13 256 215 184 243 279 257 243 3 336 334 8 14 16 31 30 36 66 62 65 103 131 125 122 130 124 124 139 141 141 138 132 138 150 155 159 160 161 163 165 171 174 179 185 184 182 185 182 180 182 185 187 185 182 181 179 177 175 174 172 170 171 172 172 171 170 169 169 167 163 156 153 151 150 159 171 179 186 192 194 195 197 198 201 204 203 202 203
138 200 185 114 84 116 129 235 107 156 251 239 133 267 283 257 249 27 352 329 360 13 22 38 40 43 56 66 72 86 120 137 144 156 149 138 141 138 133 129 124 130 141 144 151 162 174 182 183 182 180 183 186 183 183 185 182 182 185 188 189 187 183 183 181 178 178 177 176 176 178 178 176 173 170 170 171 167 162 156 154 153 149 151 161 171 181 193 194 192 192 194 197 198 198 199 199
215 283 132 137 227 203 148 215 203 212 246 226 153 266 261 236 235 34 318 320 337 356 26 39 42 44 44 60 86 94 119 149 164 166 158 137 129 129 129 127 123 128 137 145 158 174 188 194 192 187 183 183 183 181 182 183 183 186 187 188 190 188 185 186 185 181 180 179 178 179 179 177 175 169 167 167 166 163 160 158 159 155 148 148 160 165 169 178 180 181 182 182 185 189 192 200 203
159 180 180 218 280 237 176 183 207 232 246 234 211 242 231 218 207 252 274 307 335 353 27 39 40 40 37 47 84 121 125 137 161 158 150 138 130 127 129 129 129 135 145 159 171 182 189 188 184 180 179 180 180 181 183 183 186 189 187 186 189 188 186 189 189 184 182 178 177 177 175 173 171 165 162 162 162 163 160 157 160 152 139 135 154 160 158 158 162 168 172 174 178 182 186 197 205
207 199 198 192 134 69 210 146 64 262 223 191 230 251 237 185 197 241 266 286 327 31 45 44 36 32 34 33 30 41 82 92 126 143 146 141 132 131 133 132 132 141 159 174 179 183 182 173 171 174 177 181 182 183 185 187 188 188 185 185 188 188 187 190 191 188 183 177 174 174 172 171 168 162 158 158 160 165 163 159 161 152 133 120 134 147 150 152 158 164 170 175 178 181 189 197 201
248 238 218 201 163 167 210 209 163 320 249 183 221 255 249 112 194 233 251 306 6 52 66 58 37 30 31 29 29 31 30 27 34 81 128 125 115 116 123 128 136 152 171 178 174 172 170 167 172 175 177 182 184 183 186 192 191 186 184 186 188 187 188 190 190 188 182 176 173 172 172 172 170 163 159 159 161 164 163 163 166 159 141 121 125 135 138 144 155 165 171 175 178 186 194 195 197